Location: Fernhill
(41.0167°S, 175.6333°E)
Time: 03:48:39
(UTC+00:00)

Cosmos 1428 Rocket - Visible Passes

Search period start: 19 February 2026 00:00
Search period end: 01 March 2026 00:00
Orbit: 946 x 988 km, 82.9° (Epoch: 18 February)

Date Brightness Start Highest point End Pass type
(mag) Time Alt. Az. Time Alt. Az. Time Alt. Az.
19 Feb 4.5 07:51:40 10° S 07:58:03 69° E 08:04:17 10° NNE visible
19 Feb 7.0 09:38:28 10° SW 09:42:30 18° W 09:46:30 10° WNW visible
20 Feb 4.8 08:14:28 10° SSW 08:20:50 72° W 08:27:03 10° N visible
21 Feb 5.8 08:37:33 10° SSW 08:43:28 41° W 08:49:15 10° NNW visible
22 Feb 6.7 09:01:02 10° SSW 09:05:56 24° W 09:10:48 10° NW visible
23 Feb 4.6 07:37:39 10° S 07:44:03 87° E 07:50:19 10° N visible
23 Feb 7.2 09:25:24 10° SW 09:28:16 13° WSW 09:31:07 10° WNW visible
24 Feb 5.3 08:00:35 10° SSW 08:06:46 56° W 08:12:50 10° NNW visible
25 Feb 6.3 08:23:49 10° SSW 08:29:20 32° W 08:34:45 10° NNW visible
26 Feb 7.1 08:47:35 10° SW 08:51:45 19° W 08:55:51 10° WNW visible
27 Feb 4.9 07:23:41 10° S 07:30:02 75° W 07:36:14 10° N visible
28 Feb 5.9 07:46:45 10° SSW 07:52:41 43° W 07:58:29 10° NNW visible
